DAL2404 KLGA-KTPA

Flight info

Callsign DAL2404
Flight time N/A
Altitude 36000
Route KLGA/13 N0454F360 DCT BIGGY Q75 TEUFL DCT BAAMF DADES1 KTPA/01L
Aircraft B738/M-SDE2E3FGHIRWXY/LB1

Departure

Time 2026-05-04 22:19
Airport LaGuardia Airport (KLGA)

Arrival

Time N/A
Airport Tampa International Airport (KTPA)
Time Latitude Longitude Altitude Speed Heading
2026-05-04 21:30 40.77238 -73.86465 12 ft 0 kts 294°
2026-05-04 22:07 40.77232 -73.86450 11 ft 2 kts 295°
2026-05-04 22:07 40.77226 -73.86431 11 ft 2 kts 304°
2026-05-04 22:07 40.77215 -73.86418 11 ft 2 kts 329°
2026-05-04 22:07 40.77201 -73.86410 11 ft 2 kts 353°
2026-05-04 22:08 40.77192 -73.86410 11 ft 1 kts
2026-05-04 22:08 40.77187 -73.86411 11 ft 0 kts
2026-05-04 22:12 40.77194 -73.86410 11 ft 3 kts
2026-05-04 22:12 40.77234 -73.86399 10 ft 8 kts 23°
2026-05-04 22:12 40.77287 -73.86354 10 ft 9 kts 58°
2026-05-04 22:13 40.77319 -73.86262 10 ft 10 kts 49°
2026-05-04 22:13 40.77372 -73.86295 10 ft 10 kts 301°
2026-05-04 22:13 40.77416 -73.86388 10 ft 13 kts 302°
2026-05-04 22:13 40.77468 -73.86499 10 ft 15 kts 302°
2026-05-04 22:14 40.77530 -73.86627 10 ft 17 kts 302°
2026-05-04 22:14 40.77598 -73.86775 10 ft 20 kts 300°
2026-05-04 22:14 40.77674 -73.86928 12 ft 19 kts 306°
2026-05-04 22:14 40.77746 -73.87070 13 ft 14 kts 299°
2026-05-04 22:15 40.77771 -73.87127 13 ft 0 kts 301°
2026-05-04 22:15 40.77776 -73.87137 13 ft 4 kts 301°
2026-05-04 22:15 40.77815 -73.87221 14 ft 14 kts 302°
2026-05-04 22:15 40.77884 -73.87367 13 ft 18 kts 302°
2026-05-04 22:16 40.77920 -73.87440 13 ft 0 kts 302°
2026-05-04 22:16 40.77932 -73.87466 13 ft 5 kts 302°
2026-05-04 22:16 40.77977 -73.87558 13 ft 17 kts 302°
2026-05-04 22:16 40.78048 -73.87708 13 ft 21 kts 302°
2026-05-04 22:17 40.78120 -73.87843 11 ft 12 kts 329°
2026-05-04 22:17 40.78186 -73.87861 10 ft 8 kts 33°
2026-05-04 22:17 40.78200 -73.87802 10 ft 7 kts 106°
2026-05-04 22:17 40.78176 -73.87743 10 ft 0 kts 122°
2026-05-04 22:18 40.78135 -73.87659 11 ft 45 kts 123°
2026-05-04 22:18 40.77801 -73.86965 11 ft 130 kts 123°
2026-05-04 22:19 40.77220 -73.85723 225 ft 178 kts 125°
2026-05-04 22:19 40.76587 -73.84344 1213 ft 179 kts 130°
2026-05-04 22:19 40.75635 -73.83369 1999 ft 180 kts 172°
2026-05-04 22:19 40.74484 -73.83639 2916 ft 174 kts 216°
2026-05-04 22:20 40.73601 -73.84701 3846 ft 179 kts 232°
2026-05-04 22:20 40.72955 -73.86063 4825 ft 181 kts 250°
2026-05-04 22:20 40.72695 -73.87669 5688 ft 190 kts 270°
2026-05-04 22:20 40.72983 -73.89405 6221 ft 205 kts 296°
2026-05-04 22:21 40.73922 -73.90913 6711 ft 223 kts 314°
2026-05-04 22:21 40.75011 -73.92427 7123 ft 239 kts 298°
2026-05-04 22:21 40.75424 -73.94576 7557 ft 254 kts 265°
2026-05-04 22:21 40.74813 -73.96787 8170 ft 267 kts 241°
2026-05-04 22:22 40.73806 -73.98897 8916 ft 273 kts 242°
2026-05-04 22:22 40.72913 -74.01047 9751 ft 273 kts 246°
2026-05-04 22:22 40.72122 -74.03330 10456 ft 280 kts 249°
2026-05-04 22:22 40.71353 -74.05769 10948 ft 294 kts 250°
2026-05-04 22:23 40.70565 -74.08323 11446 ft 307 kts 250°
2026-05-04 22:23 40.69748 -74.10949 11845 ft 323 kts 250°
2026-05-04 22:23 40.68853 -74.13802 11888 ft 340 kts 250°
2026-05-04 22:23 40.67948 -74.16648 11896 ft 337 kts 250°
2026-05-04 22:24 40.67054 -74.19445 11973 ft 331 kts 250°
2026-05-04 22:24 40.66150 -74.22271 12202 ft 341 kts 250°
2026-05-04 22:24 40.65235 -74.25143 13251 ft 336 kts 250°
2026-05-04 22:24 40.64330 -74.27983 13967 ft 341 kts 250°
2026-05-04 22:25 40.63410 -74.30871 14694 ft 346 kts 250°
2026-05-04 22:25 40.62473 -74.33804 15424 ft 349 kts 250°
2026-05-04 22:25 40.61541 -74.36719 16111 ft 354 kts 250°
2026-05-04 22:25 40.60583 -74.39713 16805 ft 357 kts 250°
2026-05-04 22:26 40.59618 -74.42728 17458 ft 362 kts 250°
2026-05-04 22:26 40.58635 -74.45789 18169 ft 364 kts 250°
2026-05-04 22:26 40.57652 -74.48839 18771 ft 370 kts 250°
2026-05-04 22:26 40.56650 -74.51953 19449 ft 372 kts 250°
2026-05-04 22:27 40.55631 -74.55119 20055 ft 376 kts 251°
2026-05-04 22:27 40.54621 -74.58251 20557 ft 381 kts 251°
2026-05-04 22:27 40.53574 -74.61494 21125 ft 384 kts 251°
2026-05-04 22:27 40.52529 -74.64722 21650 ft 388 kts 251°
2026-05-04 22:28 40.51477 -74.67973 22239 ft 390 kts 250°
2026-05-04 22:28 40.50415 -74.71252 22743 ft 395 kts 250°
2026-05-04 22:28 40.49330 -74.74592 23323 ft 396 kts 251°
2026-05-04 22:28 40.48248 -74.77924 23787 ft 401 kts 251°
2026-05-04 22:29 40.47164 -74.81260 24287 ft 404 kts 251°
2026-05-04 22:29 40.46052 -74.84676 24762 ft 407 kts 251°
2026-05-04 22:29 40.44935 -74.88106 25249 ft 410 kts 251°
2026-05-04 22:29 40.43794 -74.91550 25687 ft 414 kts 250°
2026-05-04 22:30 40.42557 -74.94930 26168 ft 418 kts 246°
2026-05-04 22:30 40.41017 -74.98219 26557 ft 425 kts 239°
2026-05-04 22:30 40.39186 -75.01305 26959 ft 432 kts 234°
2026-05-04 22:30 40.37175 -75.04290 27362 ft 436 kts 232°
2026-05-04 22:31 40.35102 -75.07194 27778 ft 439 kts 231°
2026-05-04 22:31 40.32959 -75.10138 27894 ft 447 kts 231°
2026-05-04 22:31 40.30822 -75.13058 27904 ft 445 kts 231°
2026-05-04 22:31 40.28714 -75.15942 27904 ft 441 kts 231°
2026-05-04 22:32 40.26583 -75.18869 27904 ft 439 kts 231°
2026-05-04 22:32 40.24507 -75.21735 27906 ft 440 kts 231°
2026-05-04 22:32 40.22403 -75.24650 27908 ft 441 kts 231°
2026-05-04 22:32 40.20295 -75.27577 27908 ft 440 kts 231°
2026-05-04 22:33 40.18213 -75.30471 27908 ft 440 kts 231°
2026-05-04 22:33 40.16085 -75.33431 27909 ft 441 kts 231°
2026-05-04 22:33 40.14006 -75.36319 27909 ft 440 kts 231°
2026-05-04 22:33 40.11906 -75.39236 27909 ft 440 kts 231°
2026-05-04 22:34 40.09820 -75.42133 27909 ft 441 kts 231°
2026-05-04 22:34 40.07715 -75.45052 27962 ft 440 kts 231°
2026-05-04 22:34 40.05623 -75.47952 28235 ft 445 kts 231°
2026-05-04 22:34 40.03498 -75.50895 28635 ft 447 kts 231°
2026-05-04 22:35 40.01358 -75.53857 29024 ft 449 kts 231°
2026-05-04 22:35 39.99220 -75.56810 29417 ft 451 kts 231°
2026-05-04 22:35 39.97050 -75.59803 29699 ft 456 kts 231°
2026-05-04 22:35 39.94874 -75.62800 30115 ft 457 kts 231°
2026-05-04 22:36 39.92701 -75.65788 30689 ft 454 kts 230°
2026-05-04 22:36 39.90562 -75.68781 31173 ft 451 kts 232°
2026-05-04 22:36 39.88521 -75.71869 31597 ft 449 kts 234°
2026-05-04 22:36 39.86557 -75.75005 31951 ft 449 kts 235°
2026-05-04 22:37 39.84605 -75.78193 32316 ft 449 kts 235°
2026-05-04 22:37 39.82685 -75.81344 32700 ft 447 kts 235°
2026-05-04 22:37 39.80759 -75.84491 33071 ft 446 kts 235°
2026-05-04 22:37 39.78831 -75.87624 33392 ft 446 kts 235°
2026-05-04 22:38 39.76883 -75.90770 33687 ft 446 kts 235°
2026-05-04 22:38 39.74938 -75.93896 34019 ft 445 kts 235°
2026-05-04 22:38 39.72992 -75.97008 34357 ft 444 kts 235°
2026-05-04 22:38 39.71048 -76.00109 34687 ft 442 kts 235°
2026-05-04 22:39 39.69136 -76.03149 34945 ft 442 kts 235°
2026-05-04 22:39 39.67184 -76.06246 35189 ft 441 kts 235°
2026-05-04 22:39 39.65262 -76.09291 35521 ft 439 kts 234°
2026-05-04 22:39 39.63314 -76.12373 35782 ft 437 kts 234°
2026-05-04 22:40 39.61391 -76.15413 35891 ft 439 kts 234°
2026-05-04 22:40 39.57524 -76.21472 35905 ft 437 kts 234°
2026-05-04 22:41 39.53609 -76.27487 35909 ft 436 kts 233°
2026-05-04 22:41 39.49697 -76.33474 35901 ft 436 kts 234°
2026-05-04 22:42 39.45766 -76.39468 35908 ft 437 kts 233°
2026-05-04 22:42 39.41581 -76.45187 35911 ft 439 kts 229°
2026-05-04 22:43 39.37280 -76.50678 35898 ft 437 kts 229°
2026-05-04 22:43 39.32944 -76.56211 35894 ft 438 kts 229°
2026-05-04 22:44 39.28659 -76.61732 35894 ft 438 kts 229°
2026-05-04 22:44 39.24357 -76.67303 35890 ft 437 kts 229°
2026-05-04 22:45 39.20079 -76.72853 35887 ft 437 kts 229°
2026-05-04 22:45 39.13672 -76.81152 35887 ft 437 kts 229°
2026-05-04 22:46 39.09396 -76.86680 35889 ft 436 kts 229°
2026-05-04 22:46 39.05104 -76.92219 35894 ft 437 kts 229°
2026-05-04 22:47 39.00819 -76.97735 35905 ft 438 kts 228°
2026-05-04 22:47 38.96502 -77.03287 35907 ft 437 kts 229°
2026-05-04 22:48 38.92213 -77.08801 35908 ft 437 kts 229°
2026-05-04 22:48 38.87929 -77.14303 35909 ft 436 kts 229°
2026-05-04 22:49 38.83617 -77.19832 35907 ft 437 kts 229°
2026-05-04 22:49 38.79340 -77.25304 35907 ft 437 kts 229°
2026-05-04 22:50 38.75043 -77.30789 35908 ft 436 kts 229°
2026-05-04 22:50 38.70720 -77.36198 35903 ft 437 kts 227°
2026-05-04 22:51 38.66241 -77.41389 35906 ft 436 kts 225°
2026-05-04 22:51 38.61714 -77.46533 35915 ft 436 kts 226°
2026-05-04 22:52 38.57197 -77.51686 35918 ft 436 kts 226°
2026-05-04 22:52 38.52690 -77.56845 35919 ft 437 kts 226°
2026-05-04 22:53 38.48176 -77.62015 35927 ft 436 kts 226°
2026-05-04 22:53 38.43657 -77.67191 35934 ft 436 kts 225°
2026-05-04 22:54 38.39179 -77.72315 35929 ft 435 kts 225°
2026-05-04 22:54 38.34656 -77.77482 35924 ft 434 kts 226°
2026-05-04 22:55 38.30186 -77.82582 35926 ft 434 kts 226°
2026-05-04 22:55 38.25702 -77.87688 35929 ft 433 kts 226°
2026-05-04 22:56 38.21185 -77.92821 35929 ft 434 kts 226°
2026-05-04 22:56 38.16714 -77.97897 35935 ft 433 kts 226°
2026-05-04 22:57 38.12224 -78.02982 35934 ft 432 kts 226°
2026-05-04 22:57 38.07747 -78.08042 35934 ft 432 kts 226°
2026-05-04 22:58 38.03265 -78.13101 35935 ft 432 kts 226°
2026-05-04 22:58 37.98714 -78.18052 35937 ft 433 kts 223°
2026-05-04 22:59 37.93902 -78.22652 35934 ft 434 kts 221°
2026-05-04 22:59 37.89022 -78.27179 35936 ft 434 kts 221°
2026-05-04 23:00 37.84191 -78.31703 35935 ft 434 kts 221°
2026-05-04 23:00 37.79385 -78.36240 35936 ft 432 kts 221°
2026-05-04 23:01 37.74592 -78.40780 35936 ft 433 kts 221°
2026-05-04 23:01 37.69762 -78.45357 35940 ft 432 kts 222°
2026-05-04 23:02 37.64977 -78.49883 35943 ft 432 kts 222°
2026-05-04 23:02 37.60166 -78.54428 35943 ft 431 kts 222°
2026-05-04 23:03 37.55381 -78.58942 35947 ft 431 kts 222°
2026-05-04 23:03 37.50581 -78.63462 35950 ft 430 kts 222°
2026-05-04 23:04 37.45790 -78.67970 35954 ft 431 kts 221°
2026-05-04 23:04 37.40998 -78.72472 35953 ft 429 kts 221°
2026-05-04 23:05 37.36237 -78.76934 35962 ft 430 kts 221°
2026-05-04 23:05 37.31431 -78.81432 35966 ft 429 kts 221°
2026-05-04 23:06 37.26659 -78.85892 35974 ft 429 kts 222°
2026-05-04 23:06 37.21888 -78.90341 35972 ft 429 kts 221°
2026-05-04 23:07 37.17089 -78.94808 35978 ft 429 kts 222°
2026-05-04 23:07 37.12315 -78.99244 35972 ft 427 kts 222°
2026-05-04 23:08 37.07525 -79.03690 35978 ft 426 kts 222°
2026-05-04 23:08 37.02778 -79.08090 35980 ft 427 kts 222°
2026-05-04 23:09 36.98005 -79.12513 35980 ft 427 kts 222°
2026-05-04 23:09 36.93237 -79.16921 35979 ft 426 kts 222°
2026-05-04 23:10 36.88477 -79.21310 35979 ft 425 kts 222°
2026-05-04 23:10 36.83718 -79.25691 35979 ft 424 kts 222°
2026-05-04 23:11 36.78994 -79.30035 35975 ft 423 kts 222°
2026-05-04 23:11 36.74241 -79.34402 35970 ft 425 kts 222°
2026-05-04 23:12 36.69506 -79.38741 35973 ft 423 kts 222°
2026-05-04 23:12 36.64742 -79.43105 35976 ft 424 kts 222°
2026-05-04 23:13 36.60007 -79.47427 35980 ft 423 kts 222°
2026-05-04 23:13 36.55269 -79.51747 35979 ft 423 kts 222°
2026-05-04 23:14 36.50522 -79.56071 35980 ft 424 kts 222°
2026-05-04 23:14 36.45758 -79.60402 35982 ft 422 kts 222°
2026-05-04 23:15 36.41048 -79.64680 35988 ft 421 kts 222°
2026-05-04 23:15 36.36316 -79.68972 35988 ft 423 kts 221°
2026-05-04 23:16 36.31571 -79.73267 35989 ft 422 kts 221°
2026-05-04 23:16 36.26823 -79.77554 35989 ft 423 kts 221°
2026-05-04 23:17 36.22095 -79.81821 35992 ft 421 kts 221°
2026-05-04 23:17 36.17337 -79.86111 35994 ft 422 kts 221°
2026-05-04 23:18 36.12598 -79.90381 35997 ft 422 kts 221°
2026-05-04 23:18 36.07844 -79.94641 35994 ft 421 kts 221°
2026-05-04 23:19 36.02888 -79.98477 35997 ft 429 kts 212°
2026-05-04 23:19 35.97376 -80.01444 35996 ft 432 kts 208°
2026-05-04 23:20 35.91757 -80.04119 35988 ft 433 kts 207°
2026-05-04 23:20 35.86146 -80.06789 35988 ft 433 kts 207°
2026-05-04 23:21 35.80559 -80.09493 35994 ft 432 kts 208°
2026-05-04 23:21 35.74991 -80.12214 35993 ft 431 kts 208°
2026-05-04 23:22 35.69413 -80.14949 35995 ft 432 kts 208°
2026-05-04 23:22 35.63825 -80.17687 35996 ft 431 kts 208°
2026-05-04 23:23 35.58288 -80.20397 36006 ft 431 kts 208°
2026-05-04 23:23 35.52722 -80.23119 36004 ft 431 kts 208°
2026-05-04 23:24 35.47150 -80.25841 36014 ft 430 kts 208°
2026-05-04 23:24 35.41592 -80.28553 36022 ft 431 kts 208°
2026-05-04 23:25 35.36042 -80.31255 36021 ft 430 kts 208°
2026-05-04 23:25 35.30480 -80.33958 36013 ft 430 kts 208°
2026-05-04 23:26 35.24897 -80.36669 36010 ft 430 kts 207°
2026-05-04 23:26 35.19358 -80.39354 36008 ft 430 kts 207°
2026-05-04 23:27 35.13787 -80.42052 36009 ft 430 kts 207°
2026-05-04 23:27 35.08237 -80.44733 36011 ft 429 kts 207°
2026-05-04 23:28 35.02681 -80.47414 36018 ft 430 kts 207°
2026-05-04 23:28 34.97116 -80.50095 36021 ft 430 kts 208°
2026-05-04 23:29 34.91565 -80.52766 36022 ft 429 kts 207°
2026-05-04 23:29 34.86033 -80.55424 36020 ft 429 kts 207°
2026-05-04 23:30 34.80471 -80.58096 36018 ft 430 kts 207°
2026-05-04 23:30 34.74920 -80.60755 36023 ft 430 kts 207°
2026-05-04 23:31 34.69333 -80.63433 36025 ft 430 kts 208°
2026-05-04 23:31 34.64101 -80.66705 36021 ft 422 kts 219°
2026-05-04 23:32 34.59500 -80.71054 36020 ft 417 kts 225°
2026-05-04 23:32 34.55170 -80.75750 36021 ft 417 kts 227°
2026-05-04 23:33 34.50905 -80.80457 36018 ft 417 kts 226°
2026-05-04 23:33 34.46601 -80.85162 36010 ft 418 kts 226°
2026-05-04 23:34 34.42276 -80.89851 36008 ft 418 kts 226°
2026-05-04 23:34 34.37938 -80.94535 36014 ft 418 kts 226°
2026-05-04 23:35 34.33563 -80.99162 36016 ft 418 kts 224°
2026-05-04 23:35 34.28598 -81.02866 36022 ft 429 kts 208°
2026-05-04 23:36 34.22906 -81.05327 36021 ft 434 kts 203°
2026-05-04 23:36 34.17159 -81.07432 36023 ft 435 kts 202°
2026-05-04 23:37 34.11344 -81.09562 36025 ft 436 kts 202°
2026-05-04 23:37 34.05576 -81.11724 36023 ft 434 kts 203°
2026-05-04 23:38 33.99802 -81.13917 36023 ft 434 kts 203°
2026-05-04 23:38 33.94053 -81.16108 36025 ft 434 kts 203°
2026-05-04 23:39 33.88293 -81.18308 36024 ft 434 kts 203°
2026-05-04 23:39 33.82546 -81.20501 36026 ft 434 kts 203°
2026-05-04 23:40 33.76783 -81.22697 36027 ft 434 kts 203°
2026-05-04 23:40 33.71031 -81.24885 36027 ft 434 kts 203°
2026-05-04 23:41 33.65287 -81.27067 36022 ft 433 kts 203°
2026-05-04 23:41 33.59553 -81.29240 36031 ft 433 kts 203°
2026-05-04 23:42 33.53827 -81.31409 36023 ft 433 kts 203°
2026-05-04 23:42 33.48054 -81.33595 36028 ft 434 kts 203°
2026-05-04 23:43 33.42313 -81.35766 36028 ft 433 kts 203°
2026-05-04 23:43 33.36573 -81.37929 36034 ft 434 kts 203°
2026-05-04 23:44 33.30837 -81.40090 36039 ft 433 kts 203°
2026-05-04 23:44 33.25077 -81.42305 36046 ft 433 kts 205°
2026-05-04 23:45 33.19442 -81.44712 36037 ft 430 kts 206°
2026-05-04 23:45 33.13836 -81.47167 36041 ft 431 kts 206°
2026-05-04 23:46 33.08191 -81.49619 36038 ft 432 kts 206°
2026-05-04 23:46 33.02531 -81.52052 36036 ft 432 kts 206°
2026-05-04 23:47 32.96905 -81.54462 36032 ft 431 kts 206°
2026-05-04 23:47 32.91245 -81.56876 36034 ft 432 kts 206°
2026-05-04 23:48 32.85602 -81.59364 36021 ft 430 kts 207°
2026-05-04 23:48 32.80039 -81.61900 36031 ft 428 kts 207°
2026-05-04 23:49 32.74440 -81.64456 36039 ft 431 kts 207°
2026-05-04 23:49 32.68852 -81.66997 36039 ft 434 kts 207°
2026-05-04 23:50 32.63215 -81.69541 36045 ft 431 kts 207°
2026-05-04 23:50 32.57617 -81.72064 36057 ft 433 kts 207°
2026-05-04 23:51 32.52000 -81.74586 36051 ft 430 kts 207°
2026-05-04 23:51 32.46389 -81.77102 36039 ft 431 kts 207°
2026-05-04 23:52 32.40783 -81.79617 36048 ft 430 kts 207°
2026-05-04 23:52 32.35178 -81.82129 36039 ft 431 kts 208°
2026-05-04 23:53 32.29586 -81.84631 36046 ft 431 kts 208°
2026-05-04 23:53 32.23956 -81.87148 36050 ft 433 kts 208°
2026-05-04 23:54 32.18361 -81.89645 36044 ft 431 kts 208°
2026-05-04 23:54 32.12723 -81.92127 36048 ft 434 kts 207°
2026-05-04 23:55 32.06957 -81.94347 36049 ft 436 kts 205°
2026-05-04 23:56 31.98243 -81.97508 36033 ft 435 kts 205°
2026-05-04 23:56 31.92457 -81.99630 36027 ft 438 kts 205°
2026-05-04 23:57 31.86610 -82.01785 36049 ft 440 kts 205°
2026-05-04 23:57 31.80668 -82.03521 36030 ft 443 kts 200°
2026-05-04 23:57 31.77619 -82.04268 36227 ft 445 kts 200°
2026-05-04 23:58 31.74606 -82.04986 36082 ft 444 kts 200°
2026-05-04 23:58 31.68581 -82.06417 36054 ft 439 kts 200°
2026-05-04 23:59 31.62587 -82.07889 36052 ft 441 kts 200°
2026-05-04 23:59 31.56621 -82.09370 36047 ft 440 kts 200°
2026-05-05 00:00 31.50621 -82.10876 36050 ft 441 kts 201°
2026-05-05 00:00 31.44598 -82.12389 36043 ft 441 kts 201°
2026-05-05 00:01 31.38576 -82.13901 36016 ft 443 kts 201°
2026-05-05 00:01 31.34223 -82.14996 35830 ft 445 kts 201°
2026-05-05 00:01 31.31195 -82.15758 35571 ft 445 kts 201°
2026-05-05 00:02 31.28161 -82.16516 35313 ft 443 kts 201°
2026-05-05 00:02 31.25187 -82.17256 35049 ft 441 kts 201°
2026-05-05 00:02 31.22154 -82.18012 34783 ft 442 kts 201°
2026-05-05 00:02 31.19164 -82.18761 34524 ft 444 kts 201°
2026-05-05 00:03 31.16116 -82.19524 34248 ft 446 kts 201°
2026-05-05 00:03 31.13073 -82.20287 34049 ft 447 kts 201°
2026-05-05 00:03 31.10044 -82.21041 34040 ft 446 kts 201°
2026-05-05 00:04 31.03949 -82.22559 34046 ft 449 kts 202°
2026-05-05 00:04 30.97850 -82.24074 34041 ft 448 kts 201°
2026-05-05 00:05 30.91733 -82.25594 34046 ft 451 kts 201°
2026-05-05 00:05 30.85612 -82.27108 34044 ft 450 kts 201°
2026-05-05 00:06 30.79479 -82.28631 34045 ft 453 kts 201°
2026-05-05 00:06 30.73320 -82.30157 34046 ft 450 kts 201°
2026-05-05 00:07 30.67101 -82.31506 34039 ft 459 kts 196°
2026-05-05 00:07 30.60639 -82.31826 34035 ft 469 kts 188°
2026-05-05 00:08 30.54072 -82.31593 33811 ft 478 kts 186°
2026-05-05 00:08 30.50765 -82.31435 33552 ft 477 kts 186°
2026-05-05 00:08 30.47446 -82.31278 33295 ft 474 kts 186°
2026-05-05 00:08 30.44149 -82.31136 33043 ft 472 kts 187°
2026-05-05 00:09 30.40852 -82.31011 32786 ft 473 kts 187°
2026-05-05 00:09 30.37594 -82.30899 32533 ft 473 kts 187°
2026-05-05 00:09 30.34296 -82.30795 32284 ft 474 kts 187°
2026-05-05 00:09 30.30995 -82.30695 32015 ft 473 kts 187°
2026-05-05 00:10 30.27697 -82.30595 31754 ft 469 kts 187°
2026-05-05 00:10 30.24469 -82.30494 31500 ft 465 kts 187°
2026-05-05 00:10 30.21249 -82.30396 31246 ft 463 kts 187°
2026-05-05 00:10 30.18015 -82.30302 30986 ft 461 kts 187°
2026-05-05 00:11 30.14824 -82.30209 30725 ft 457 kts 187°
2026-05-05 00:11 30.11660 -82.30116 30472 ft 455 kts 187°
2026-05-05 00:11 30.08467 -82.30026 30212 ft 454 kts 187°
2026-05-05 00:11 30.05333 -82.29935 29952 ft 451 kts 187°
2026-05-05 00:12 30.02209 -82.29844 29688 ft 447 kts 187°
2026-05-05 00:12 29.99097 -82.29754 29425 ft 444 kts 187°
2026-05-05 00:12 29.96025 -82.29667 29167 ft 443 kts 187°
2026-05-05 00:12 29.92956 -82.29583 28916 ft 444 kts 187°
2026-05-05 00:13 29.89840 -82.29497 28659 ft 443 kts 187°
2026-05-05 00:13 29.86777 -82.29412 28398 ft 439 kts 186°
2026-05-05 00:13 29.83710 -82.29324 28149 ft 438 kts 186°
2026-05-05 00:13 29.80695 -82.29239 27896 ft 436 kts 186°
2026-05-05 00:14 29.77650 -82.29153 27644 ft 435 kts 186°
2026-05-05 00:14 29.74631 -82.29069 27367 ft 434 kts 186°
2026-05-05 00:14 29.71619 -82.28986 27217 ft 433 kts 186°
2026-05-05 00:14 29.68605 -82.28899 27228 ft 431 kts 186°
2026-05-05 00:15 29.65596 -82.28816 27234 ft 434 kts 186°
2026-05-05 00:15 29.62585 -82.28737 27224 ft 437 kts 186°
2026-05-05 00:15 29.59535 -82.28652 27226 ft 434 kts 186°
2026-05-05 00:15 29.56531 -82.28567 27224 ft 435 kts 186°
2026-05-05 00:16 29.53519 -82.28481 27226 ft 434 kts 186°
2026-05-05 00:16 29.50471 -82.28394 27217 ft 435 kts 186°
2026-05-05 00:16 29.47437 -82.28307 27216 ft 436 kts 186°
2026-05-05 00:16 29.44439 -82.28221 27215 ft 433 kts 186°
2026-05-05 00:17 29.41383 -82.28137 27223 ft 436 kts 186°
2026-05-05 00:17 29.38367 -82.28057 27228 ft 437 kts 186°
2026-05-05 00:17 29.35319 -82.27972 27211 ft 434 kts 186°
2026-05-05 00:17 29.32295 -82.27885 27213 ft 435 kts 186°
2026-05-05 00:18 29.29237 -82.27801 27220 ft 437 kts 186°
2026-05-05 00:18 29.26199 -82.27718 27217 ft 437 kts 186°
2026-05-05 00:18 29.23144 -82.27634 27201 ft 437 kts 186°
2026-05-05 00:18 29.20146 -82.27546 27214 ft 435 kts 186°
2026-05-05 00:19 29.17091 -82.27457 27224 ft 438 kts 186°
2026-05-05 00:19 29.14035 -82.27370 27214 ft 436 kts 186°
2026-05-05 00:19 29.11010 -82.27285 27214 ft 437 kts 186°
2026-05-05 00:19 29.07971 -82.27201 27213 ft 437 kts 186°
2026-05-05 00:20 29.04914 -82.27116 27209 ft 436 kts 186°
2026-05-05 00:20 29.01889 -82.27032 27212 ft 437 kts 186°
2026-05-05 00:20 28.98851 -82.26948 27214 ft 437 kts 186°
2026-05-05 00:20 28.95783 -82.26859 27210 ft 436 kts 186°
2026-05-05 00:21 28.92746 -82.26772 27219 ft 437 kts 186°
2026-05-05 00:21 28.89714 -82.26689 27214 ft 440 kts 186°
2026-05-05 00:21 28.86643 -82.26605 27211 ft 437 kts 186°
2026-05-05 00:21 28.83613 -82.26522 27211 ft 439 kts 186°
2026-05-05 00:22 28.80572 -82.26440 27215 ft 438 kts 186°
2026-05-05 00:22 28.77494 -82.26354 27217 ft 438 kts 185°
2026-05-05 00:22 28.74465 -82.26269 27211 ft 438 kts 186°
2026-05-05 00:22 28.71396 -82.26183 27211 ft 436 kts 186°
2026-05-05 00:23 28.68340 -82.26098 27216 ft 439 kts 186°
2026-05-05 00:23 28.65285 -82.26015 27215 ft 440 kts 186°
2026-05-05 00:23 28.62214 -82.25929 27209 ft 439 kts 186°
2026-05-05 00:23 28.59195 -82.25841 27211 ft 437 kts 186°
2026-05-05 00:24 28.56120 -82.25754 27212 ft 441 kts 186°
2026-05-05 00:24 28.53049 -82.25669 27208 ft 441 kts 186°
2026-05-05 00:24 28.49966 -82.25584 27206 ft 439 kts 186°
2026-05-05 00:24 28.46940 -82.25501 27211 ft 441 kts 186°
2026-05-05 00:25 28.43839 -82.25418 27209 ft 441 kts 186°
2026-05-05 00:25 28.40786 -82.25486 27210 ft 433 kts 192°
2026-05-05 00:25 28.37862 -82.26015 27209 ft 422 kts 202°
2026-05-05 00:25 28.35157 -82.27161 27217 ft 414 kts 214°
2026-05-05 00:26 28.32686 -82.28816 27212 ft 406 kts 222°
2026-05-05 00:26 28.30440 -82.30714 27118 ft 403 kts 225°
2026-05-05 00:26 28.28275 -82.32715 26898 ft 404 kts 227°
2026-05-05 00:26 28.26135 -82.34755 26512 ft 401 kts 227°
2026-05-05 00:27 28.23995 -82.36791 26126 ft 398 kts 227°
2026-05-05 00:27 28.21813 -82.38681 25731 ft 399 kts 220°
2026-05-05 00:27 28.19374 -82.40208 25329 ft 406 kts 211°
2026-05-05 00:27 28.16675 -82.41232 24924 ft 412 kts 200°
2026-05-05 00:28 28.13831 -82.41707 24517 ft 414 kts 191°
2026-05-05 00:28 28.10958 -82.41814 24109 ft 412 kts 187°
2026-05-05 00:28 28.08098 -82.41769 23577 ft 411 kts 185°
2026-05-05 00:28 28.05216 -82.41692 22870 ft 413 kts 185°
2026-05-05 00:29 28.02309 -82.41639 22074 ft 417 kts 185°
2026-05-05 00:29 27.99431 -82.41626 21258 ft 420 kts 186°
2026-05-05 00:29 27.96511 -82.41645 20438 ft 423 kts 186°
2026-05-05 00:29 27.93565 -82.41682 19625 ft 425 kts 186°
2026-05-05 00:30 27.90570 -82.41730 18805 ft 427 kts 186°
2026-05-05 00:30 27.87598 -82.41791 17993 ft 428 kts 185°
2026-05-05 00:30 27.84618 -82.41860 17180 ft 428 kts 185°
2026-05-05 00:30 27.81659 -82.41934 16382 ft 427 kts 186°
2026-05-05 00:31 27.78722 -82.42233 15575 ft 424 kts 189°
2026-05-05 00:31 27.75758 -82.42399 14772 ft 426 kts 183°
2026-05-05 00:31 27.72811 -82.42331 13979 ft 425 kts 181°
2026-05-05 00:31 27.69869 -82.42182 13504 ft 415 kts 180°
2026-05-05 00:32 27.67043 -82.42028 13125 ft 405 kts 180°
2026-05-05 00:32 27.64227 -82.41876 12583 ft 399 kts 179°
2026-05-05 00:32 27.61486 -82.41730 12057 ft 395 kts 180°
2026-05-05 00:32 27.58755 -82.41586 11440 ft 390 kts 180°
2026-05-05 00:33 27.56057 -82.41451 10836 ft 385 kts 180°
2026-05-05 00:33 27.53396 -82.41312 10246 ft 374 kts 180°
2026-05-05 00:33 27.50883 -82.41182 9701 ft 362 kts 179°
2026-05-05 00:33 27.48377 -82.41058 9128 ft 350 kts 179°
2026-05-05 00:34 27.45959 -82.40947 8550 ft 340 kts 179°
2026-05-05 00:34 27.41539 -82.40782 7444 ft 324 kts 180°
2026-05-05 00:34 27.39326 -82.40717 6856 ft 317 kts 180°
2026-05-05 00:35 27.37138 -82.40672 6287 ft 310 kts 182°
2026-05-05 00:35 27.35055 -82.41133 5696 ft 305 kts 203°
2026-05-05 00:35 27.33335 -82.42497 5178 ft 299 kts 229°
2026-05-05 00:35 27.32375 -82.44481 5004 ft 283 kts 256°
2026-05-05 00:36 27.32313 -82.46605 4907 ft 267 kts 283°
2026-05-05 00:36 27.33096 -82.48419 4737 ft 253 kts 313°
2026-05-05 00:36 27.34436 -82.49609 4387 ft 246 kts 331°
2026-05-05 00:36 27.35922 -82.50523 3789 ft 241 kts 334°
2026-05-05 00:37 27.37440 -82.51292 3191 ft 236 kts 339°
2026-05-05 00:37 27.38911 -82.52097 2638 ft 230 kts 335°
2026-05-05 00:37 27.40279 -82.52934 2270 ft 218 kts 334°
2026-05-05 00:37 27.41541 -82.53735 2218 ft 196 kts 334°
2026-05-05 00:38 27.42650 -82.54443 2438 ft 171 kts 336°
2026-05-05 00:38 27.43668 -82.55048 2348 ft 167 kts 346°
2026-05-05 00:38 27.44720 -82.54848 998 ft 231 kts 91°
2026-05-05 00:38 27.44665 -82.54324 32 ft 0 kts 131°
2026-05-05 00:39 27.44664 -82.54323 32 ft 0 kts 133°
2026-05-05 00:39 27.44663 -82.54323 32 ft 0 kts 137°